Southend, Saskatchewan

5:47 PM CST on August 23, 2017 (GMT -0600)
Southend

Weather History for CWJH - August, 2013

Change the Weather History Date:

Friday, August 30, 2013

  Actual Average Record
Temperature  
Mean Temperature 56 °F -  
Max Temperature 59 °F - - ()
Min Temperature 54 °F - - ()
Degree Days  
Heating Degree Days 8    
Growing Degree Days 6 (Base 50)    
Moisture  
Dew Point 54 °F    
Average Humidity 90    
Maximum Humidity 95    
Minimum Humidity 80    
Precipitation  
Precipitation 0.35 in - - ()
Sea Level Pressure  
Sea Level Pressure 29.92 in    
Wind  
Wind Speed 2 mph ()    
Max Wind Speed 5 mph    
Max Gust Speed -    
T = Trace of Precipitation, MM = Missing Value Source: Averaged Metar Reports

Daily Weather History Graph

Daily Weather History Graph

Search for Another Location

Airport or City:

Trip Planner

Search our weather history database for the weather conditions in past years. The results will help you decide how hot, cold, wet, or windy it might be!

Date:

Astronomy

Aug. 30, 2013 Rise Set
Actual Time 5:53 AM CST 7:52 PM CST
Civil Twilight 5:13 AM CST 8:32 PM CST
Nautical Twilight 4:22 AM CST 9:22 PM CST
Astronomical Twilight 3:21 AM CST 10:22 PM CST
Moon No Moon Rise 4:43 PM CST (8/30)
Length of Visible Light 15h 19m
Length of Day
13h 59m
Waning Crescent, 28% of the Moon is Illuminated
Aug 30
Waning Crescent
Sep 5
New
Sep 12
First Quarter
Sep 19
Full
Sep 26
Last Quarter

Hourly Weather History & Observations

Time (CST) Temp. Dew Point Humidity Pressure Visibility Wind Dir Wind Speed Gust Speed Precip Events Conditions
12:00 AM 56.3 °F 53.2 °F 89% 30.03 in - SE 1.2 mph - N/A   Unknown
1:00 AM 55.0 °F 52.5 °F 91% 30.04 in - Calm Calm - N/A   Unknown
2:00 AM 58.1 °F 53.4 °F 84% 30.01 in - SE 1.2 mph - N/A   Unknown
3:00 AM 59.7 °F 53.6 °F 80% 30.01 in - SSE 1.2 mph - N/A   Unknown
4:00 AM 59.0 °F 55.2 °F 87% 29.99 in - SE 1.2 mph - 0.01 in   Unknown
5:00 AM 59.4 °F 54.9 °F 85% 29.97 in - SE 1.2 mph - N/A   Unknown
6:00 AM 58 °F 55 °F 87% 29.97 in - South 1.2 mph - -  
6:00 AM 57.7 °F 55.2 °F 91% 29.97 in - South 1.2 mph - N/A   Unknown
7:00 AM 59.4 °F 55.2 °F 86% 29.96 in - SE 2.3 mph - N/A   Unknown
8:00 AM 58.3 °F 56.3 °F 93% 29.96 in - SSE 2.3 mph - 0.04 in   Unknown
9:00 AM 57.7 °F 56.3 °F 95% 29.95 in - SSE 2.3 mph - 0.25 in   Unknown
10:00 AM 58.3 °F 56.3 °F 93% 29.93 in - SE 2.3 mph - 0.04 in   Unknown
11:00 AM 58.5 °F 56.3 °F 93% 29.90 in - SE 2.3 mph - 0.01 in   Unknown
12:00 PM 59 °F 56 °F 87% 29.87 in - East 2.3 mph - -  
12:00 PM 58.6 °F 56.1 °F 91% 29.87 in - East 2.3 mph - N/A   Unknown
1:00 PM 58.1 °F 54.9 °F 89% 29.89 in - SE 2.3 mph - N/A   Unknown
2:00 PM 58.1 °F 54.7 °F 88% 29.87 in - East 3.5 mph - N/A   Unknown
3:00 PM 57.6 °F 55.0 °F 91% 29.87 in - East 3.5 mph - 0.02 in   Unknown
4:00 PM 56.8 °F 54.9 °F 93% 29.86 in - East 3.5 mph - 0.03 in   Unknown
5:00 PM 56.5 °F 54.5 °F 93% 29.86 in - East 3.5 mph - 0.01 in   Unknown
6:00 PM 56 °F 54 °F 91% 29.84 in - ENE 4.6 mph - -  
6:00 PM 56.3 °F 54.1 °F 92% 29.84 in - ENE 4.6 mph - N/A   Unknown
7:00 PM 56.1 °F 53.6 °F 91% 29.85 in - East 3.5 mph - N/A   Unknown
8:00 PM 55.4 °F 52.9 °F 91% 29.86 in - East 3.5 mph - N/A   Unknown
9:00 PM 54.9 °F 52.7 °F 92% 29.87 in - East 3.5 mph - N/A   Unknown
10:00 PM 54.3 °F 51.8 °F 91% 29.87 in - East 3.5 mph - N/A   Unknown
11:00 PM 54.1 °F 51.8 °F 92% 29.88 in - ENE 3.5 mph - N/A   Unknown